Weather History for Knox, IN

Change the Weather History Date:

Tuesday, April 23, 2013

  Actual Average (KVPZ) Record (KVPZ)
Temperature  
Mean Temperature 52 °F 52 °F  
Max Temperature 77 °F 63 °F 78 °F (2008)
Min Temperature 38 °F 41 °F 30 °F (2002)
Degree Days  
Heating Degree Days 14 13  
Month to date heating degree days 397  
Since 1 July heating degree days 5974  
Cooling Degree Days 0 0  
Month to date cooling degree days 0  
Year to date cooling degree days 0  
Growing Degree Days 2 (Base 50)    
Moisture  
Dew Point 44 °F    
Average Humidity 77    
Maximum Humidity 99    
Minimum Humidity 51    
Precipitation  
Precipitation 0.00 in 0.11 in 0.59 in (1999)
Month to date precipitation 2.55  
Year to date precipitation 8.20  
Sea Level Pressure  
Sea Level Pressure 29.94 in    
Wind  
Wind Speed 10 mph (South)    
Max Wind Speed 22 mph    
Max Gust Speed 31 mph    
Visibility 8 miles    
Events      
T = Trace of Precipitation, MM = Missing Value Source: NWS Daily Summary

Daily Weather History Graph

Daily Weather History Graph

Search for Another Location

Airport:

Trip Planner

Search our weather history database for the weather conditions in past years. The results will help you decide how hot, cold, wet, or windy it might be!

Date:

Astronomy

Apr. 23, 2013 Rise Set
Actual Time 5:54 AM CDT 7:35 PM CDT
Civil Twilight 5:25 AM CDT 8:05 PM CDT
Nautical Twilight 4:49 AM CDT 8:40 PM CDT
Astronomical Twilight 4:11 AM CDT 9:19 PM CDT
Moon 5:29 PM CDT (4/23) 4:23 AM CDT (4/23)
Length of Visible Light 14h 39m
Length of Day
13h 41m
Waxing Gibbous, 94% of the Moon is Illuminated
Apr 23
Waxing Gibbous
Apr 25
Full
May 2
Last Quarter
May 9
New
May 17
First Quarter

Hourly Weather History & Observations

Time (CDT) Temp. Windchill Dew Point Humidity Pressure Visibility Wind Dir Wind Speed Gust Speed Precip Events Conditions
12:15 AM 45.7 °F 44.4 °F 36.7 °F 71% 30.08 in 10.0 mi SE 3.5 mph - N/A   Clear
12:35 AM 46.2 °F 43.3 °F 37.2 °F 71% 30.08 in 10.0 mi SE 5.8 mph - N/A   Clear
12:55 AM 47.5 °F - 37.0 °F 67% 30.08 in 10.0 mi SE 5.8 mph - N/A   Clear
1:15 AM 46.6 °F - 37.6 °F 71% 30.07 in 10.0 mi SE 5.8 mph - N/A   Clear
1:35 AM 46.4 °F 42.4 °F 37.6 °F 71% 30.07 in 10.0 mi SE 8.1 mph - N/A   Clear
1:55 AM 47.7 °F - 37.8 °F 69% 30.05 in 10.0 mi SE 9.2 mph - N/A   Mostly Cloudy
2:15 AM 49.1 °F - 37.8 °F 65% 30.05 in 10.0 mi SE 9.2 mph - N/A   Scattered Clouds
2:35 AM 49.1 °F - 37.8 °F 65% 30.04 in 10.0 mi SSE 8.1 mph - N/A   Scattered Clouds
2:55 AM 49.5 °F - 38.3 °F 65% 30.03 in 10.0 mi SSE 8.1 mph - N/A   Clear
3:15 AM 49.8 °F - 38.1 °F 64% 30.02 in 10.0 mi SSE 9.2 mph - N/A   Clear
3:35 AM 50.0 °F - 37.8 °F 63% 30.01 in 10.0 mi SSE 10.4 mph - N/A   Clear
3:55 AM 50.2 °F - 37.8 °F 62% 30.00 in 10.0 mi SSE 9.2 mph - N/A   Clear
4:15 AM 50.0 °F - 38.1 °F 64% 30.00 in 10.0 mi SSE 10.4 mph - N/A   Scattered Clouds
4:35 AM 50.9 °F - 38.5 °F 62% 30.01 in 10.0 mi South 8.1 mph - N/A   Mostly Cloudy
4:55 AM 51.4 °F - 38.7 °F 62% 30.02 in 10.0 mi South 8.1 mph - N/A   Overcast
5:15 AM 51.4 °F - 39.0 °F 63% 30.01 in 10.0 mi South 8.1 mph - N/A   Mostly Cloudy
5:35 AM 51.6 °F - 39.2 °F 63% 29.99 in 10.0 mi SSE 9.2 mph - N/A   Scattered Clouds
5:55 AM 50.4 °F - 39.4 °F 66% 30.00 in 10.0 mi SSW 3.5 mph - N/A   Mostly Cloudy
6:15 AM 49.3 °F - 39.6 °F 69% 29.99 in 10.0 mi SSE 4.6 mph - N/A   Mostly Cloudy
6:35 AM 49.3 °F - 39.9 °F 70% 30.00 in 10.0 mi SSE 5.8 mph - N/A   Overcast
6:55 AM 50.4 °F - 40.6 °F 69% 30.00 in 10.0 mi SE 5.8 mph - N/A   Overcast
7:15 AM 50.0 °F - 41.4 °F 72% 30.00 in 10.0 mi SSE 8.1 mph - N/A   Overcast
7:55 AM 50.7 °F - 42.3 °F 73% 29.99 in 10.0 mi SE 8.1 mph - N/A   Overcast
8:15 AM 52.0 °F - 42.6 °F 70% 29.98 in 10.0 mi SSE 10.4 mph - N/A   Scattered Clouds
8:35 AM 53.8 °F - 42.8 °F 66% 29.98 in 10.0 mi South 11.5 mph - N/A   Clear
8:55 AM 55.6 °F - 43.2 °F 63% 29.97 in 10.0 mi SSE 11.5 mph - N/A   Clear
9:15 AM 57.2 °F - 43.3 °F 60% 29.97 in 10.0 mi South 13.8 mph 17.3 mph N/A   Scattered Clouds
9:35 AM 58.6 °F - 43.7 °F 58% 29.96 in 10.0 mi South 12.7 mph - N/A   Scattered Clouds
9:55 AM 59.4 °F - 43.9 °F 57% 29.97 in 10.0 mi South 12.7 mph - N/A   Scattered Clouds
10:15 AM 60.4 °F - 44.6 °F 56% 29.96 in 10.0 mi South 12.7 mph 19.6 mph N/A   Scattered Clouds
10:35 AM 62.1 °F - 45.3 °F 54% 29.96 in 10.0 mi South 17.3 mph 21.9 mph N/A   Clear
10:55 AM 63.1 °F - 45.5 °F 53% 29.95 in 10.0 mi SSW 16.1 mph - N/A   Scattered Clouds
11:15 AM 63.7 °F - 45.9 °F 52% 29.95 in 10.0 mi South 17.3 mph - N/A   Scattered Clouds
11:35 AM 64.0 °F - 46.2 °F 52% 29.93 in 10.0 mi South 20.7 mph 24.2 mph N/A   Scattered Clouds
11:55 AM 64.0 °F - 46.2 °F 52% 29.93 in 10.0 mi South 16.1 mph 21.9 mph N/A   Clear
12:15 PM 64.9 °F - 46.6 °F 51% 29.92 in 10.0 mi South 15.0 mph - N/A   Mostly Cloudy
12:35 PM 65.7 °F - 46.9 °F 51% 29.91 in 10.0 mi South 18.4 mph 21.9 mph N/A   Overcast
12:55 PM 65.3 °F - 46.9 °F 51% 29.90 in 10.0 mi SW 18.4 mph 31.1 mph N/A   Overcast
1:15 PM 64.8 °F - 47.5 °F 53% 29.90 in 10.0 mi SW 21.9 mph 28.8 mph N/A   Overcast
1:35 PM 62.2 °F - 49.3 °F 63% 29.90 in 10.0 mi SW 19.6 mph 29.9 mph N/A   Overcast
1:55 PM 59.5 °F - 50.4 °F 72% 29.92 in 5.0 mi SW 20.7 mph - N/A   Overcast
2:15 PM 57.4 °F - 53.4 °F 87% 29.92 in 4.0 mi SW 16.1 mph - N/A   Overcast
2:35 PM 56.5 °F - 54.0 °F 91% 29.92 in 7.0 mi SSW 12.7 mph - N/A   Overcast
2:55 PM 56.1 °F - 54.3 °F 94% 29.91 in 5.0 mi SW 10.4 mph - N/A   Overcast
3:15 PM 55.9 °F - 54.5 °F 95% 29.91 in 7.0 mi SW 10.4 mph - N/A   Overcast
3:35 PM 56.1 °F - 54.9 °F 96% 29.90 in 3.0 mi SSW 8.1 mph - N/A   Overcast
3:55 PM 56.1 °F - 55.4 °F 97% 29.89 in 5.0 mi SSW 10.4 mph - N/A   Overcast
4:15 PM 56.3 °F - 55.4 °F 97% 29.88 in 5.0 mi SSW 11.5 mph - N/A   Overcast
4:35 PM 56.1 °F - 55.2 °F 97% 29.88 in 5.0 mi SSW 11.5 mph - N/A   Overcast
4:55 PM 56.3 °F - 55.2 °F 96% 29.87 in 7.0 mi SSW 9.2 mph - N/A   Overcast
5:15 PM 56.3 °F - 55.4 °F 97% 29.86 in 5.0 mi SSW 6.9 mph - N/A   Overcast
5:35 PM 56.1 °F - 55.4 °F 97% 29.86 in 4.0 mi SSW 8.1 mph - N/A   Overcast
5:55 PM 55.8 °F - 55.4 °F 99% 29.85 in 4.0 mi South 5.8 mph - N/A   Overcast
6:15 PM 55.8 °F - 55.4 °F 99% 29.85 in 4.0 mi SSW 5.8 mph - N/A   Overcast
6:35 PM 48.6 °F - 47.5 °F 96% 29.85 in 5.0 mi North 17.3 mph - N/A   Overcast
6:55 PM 43.2 °F 35.0 °F 42.6 °F 98% 29.86 in 5.0 mi North 18.4 mph - N/A   Overcast
7:15 PM 41.9 °F 34.3 °F 41.4 °F 98% 29.87 in 3.0 mi North 15.0 mph - N/A   Overcast
7:35 PM 41.0 °F 31.6 °F 40.5 °F 98% 29.87 in 3.0 mi North 20.7 mph - N/A   Overcast
7:55 PM 40.1 °F 31.0 °F 39.7 °F 99% 29.88 in 5.0 mi North 18.4 mph 24.2 mph N/A   Overcast
8:15 PM 39.7 °F 30.3 °F 39.4 °F 99% 29.89 in 10.0 mi North 19.6 mph 25.3 mph N/A   Overcast
8:35 PM 39.4 °F 31.8 °F 39.2 °F 99% 29.89 in 7.0 mi North 12.7 mph - N/A   Overcast
8:55 PM 39.4 °F 30.7 °F 38.8 °F 98% 29.89 in 3.0 mi North 16.1 mph 21.9 mph N/A   Overcast
9:15 PM 39.2 °F 31.2 °F 38.7 °F 98% 29.89 in 7.0 mi North 13.8 mph 19.6 mph N/A   Overcast
9:35 PM 39.2 °F 32.0 °F 38.7 °F 98% 29.89 in 10.0 mi North 11.5 mph 21.9 mph N/A   Overcast
10:15 PM 39.2 °F 31.2 °F 38.7 °F 98% 29.87 in 5.0 mi North 13.8 mph - N/A   Overcast
10:35 PM 39.2 °F 30.8 °F 38.7 °F 98% 29.88 in 7.0 mi North 15.0 mph - N/A   Overcast
10:55 PM 39.0 °F 31.0 °F 38.7 °F 99% 29.88 in 5.0 mi North 13.8 mph - N/A   Overcast
11:15 PM 38.8 °F 31.2 °F 38.5 °F 99% 29.88 in 10.0 mi North 12.7 mph - N/A   Overcast
11:35 PM 39.0 °F 31.0 °F 38.5 °F 98% 29.88 in 10.0 mi North 13.8 mph - N/A   Overcast
11:55 PM 38.7 °F 30.5 °F 38.3 °F 99% 29.87 in 7.0 mi North 13.8 mph - N/A   Overcast